Velovelo
Português Nederlands 日本語 中文
Español English čeština slovenčina
русский italiano polski norsk
français Deutsch svenska عربي
 
 poprzednia strona
 Wyślij znajomemu
 Aby wydrukować
 ---> Les 3 Ballons 2007 : Résultats du Master 205 km

ClNomPrénomCatC.cTemps
1 MORIZOT FLORIAN ElitH 1 06:24:02:000
2 SNEL MICHEL D 1 06:25:49:000
3 RUTISHAUSER ANDREAS E 1 06:31:47:000
4 RUBIO STEPHANE D 2 06:34:07:000
5 HIDDEMA OEGE D 3 06:40:09:000
6 LOOMS ALAN E 2 06:41:49:000
7 RAYMOND YANN D 4 06:48:26:000
8 LUDEWIG STEPHAN D 5 06:49:22:000
9 DIAZ STEVE C 1 06:50:10:000
10 POLVERONI DAVID C 2 06:50:59:000
11 LANG PASCAL E 3 06:51:01:000
12 MERTZ PASCAL E 4 06:51:49:000
13 KOEN BEIJENS C 3 06:52:12:000
14 CANOY BAS C 4 06:52:53:000
15 HEIJLTJES HENRI D 6 06:52:57:000
16 JEANGEORGES JACKY D 7 06:53:22:000
17 ALTHUSSER REMY E 5 06:53:27:000
18 MOREL GILLES F 1 06:53:55:000
19 SCHEFFER FRANK E 6 06:53:57:000
20 CHIABUDINI MARCO C 5 06:54:26:000
21 VAN DE CALSEIJDE JEROEN D 8 06:54:55:000
22 LAFLEUR DIMITRI D 9 06:55:06:000
23 COATS PAUL E 7 06:56:30:000
24 SPEYBROUCK FILIP D 10 06:56:54:000
25 BRIDE PASCAL F 2 06:57:02:000
26 HUTS OLIVIER D 11 06:57:06:000
27 BECARUD THOMAS C 6 06:57:50:000
28 STORME MARNICK E 8 06:58:18:000
29 GOHN YVES D 12 06:58:39:000
30 REMY BERTRAND D 13 06:58:54:000
31 RICO HUGUES D 14 06:59:22:000
32 LAMMER DOMINIQUE E 9 06:59:57:000
33 CEULEMANS GEERT D 15 07:00:58:000
34 VERSCHUREN NICO E 10 07:01:13:000
35 WESSELS FRANS E 11 07:01:22:000
36 SMITS SANDER D 16 07:02:06:000
37 VERWIMP LUC E 12 07:02:15:000
38 RICHARD DAMIEN C 7 07:02:18:000
39 MAILFAIT SEBASTIEN D 17 07:02:52:000
40 SCHENK GERARD F 3 07:03:56:000
41 MULLER SEILLER CHRISTINE AB 1 07:04:01:000
42 GISSINGER SEBASTIEN D 18 07:04:09:000
43 PRINSEN ANDRE E 13 07:04:28:000
44 FERKET JO F 4 07:04:44:000
45 DHONT NICHOLAS C 8 07:05:02:000
46 KAGIE NIVARD C 9 07:05:17:000
47 LUYCKX RONALD D 19 07:05:29:000
48 BOSSUYT OLIVIER D 20 07:05:36:000
49 MERMANS LUC E 14 07:05:40:000
50 BELUCHE MICKAEL C 10 07:06:13:000
51 VAN WAGENINGEN MARCO D 21 07:06:23:000
52 PETERS JIM D 22 07:06:26:000
53 SCHUEPBACH LAURENT D 23 07:06:34:000
54 BERTRAND JEAN-PAUL F 5 07:06:44:000
55 ROOSE ANDY C 11 07:06:51:000
56 BLEHAUT LUDOVIC D 24 07:08:07:000
57 VOGELEISEN DOMINIQUE E 15 07:09:06:000
58 LALLEMENT THIERRY D 25 07:09:53:000
59 SCHAILLEE LUC E 16 07:10:09:000
60 MIES CHRIS D 26 07:12:39:000
61 CLEMENT LAURENT E 17 07:13:47:000
62 KLEISER DIETER F 6 07:14:17:000
63 RYCKBOSCH JAN E 18 07:14:40:000
64 PATUEL IAN E 19 07:14:50:000
65 FERLAND MARC F 7 07:15:00:000
66 DENTON STEFAN C 12 07:15:10:000
67 DE RYCKE THOMAS C 13 07:15:17:000
68 VRANKEN LUC D 27 07:15:32:000
69 DEFAT BERNARD E 20 07:16:11:000
70 RAEYMAEKERS LUC E 21 07:16:32:000
71 CHANUT CHRISTOPHE D 28 07:17:05:000
72 ROLLMANN PETER E 22 07:17:09:000
73 MOONS ERIC E 23 07:17:11:000
74 FREZIERES JEROME D 29 07:17:16:000
75 VAN GERVEN HAROLD D 30 07:17:45:000
76 HERTOGH MICHEL F 8 07:18:34:000
77 BALAUDE JEAN FRANCOIS E 24 07:20:02:000
78 ALFARO ROSO JOSE E 25 07:20:26:000
79 LUIJENDIJK ANTHONIE D 31 07:21:27:000
80 DIELS LUC D 32 07:22:13:000
81 AUBRIOT MICHEL E 26 07:22:39:000
82 THISSEN BAS D 33 07:22:40:000
83 VERMEERSCH PAUL E 27 07:23:24:000
84 GOERGEN GERMAIN F 9 07:23:31:000
85 BUYVOETS RICHARD E 28 07:24:04:000
86 VAN GESTEL ROB D 34 07:24:13:000
87 BORCY DIDIER E 29 07:24:24:000
88 SMIT ARNO D 35 07:24:29:000
89 STIENNON BERNARD E 30 07:25:09:000
90 VAN HELVOORT ARNO D 36 07:25:47:000
91 BERT CHRISTOPHE E 31 07:25:57:000
92 HAMON J.LUC E 32 07:26:11:000
93 DE GROODT LUC E 33 07:26:26:000
94 BRISSET FABRICE D 37 07:26:50:000
95 OUDSHOORN RENEE E 34 07:26:52:000
96 CASIMIR IGOR D 38 07:28:14:000
97 KINTZIGER JOEL E 35 07:28:17:000
98 MALLIEN ANDRE D 39 07:28:55:000
99 HAUTEKEETE ARNE D 40 07:29:46:000
100 MOUGEL FRANCIS E 36 07:29:51:000
101 RAISON CLAUDE E 37 07:30:09:000
102 JANSSEN WIM D 41 07:30:44:000
103 GIERSE JURGEN E 38 07:30:52:000
104 LIEBREGTS THEO E 39 07:30:54:000
105 BOECKX GEERT E 40 07:31:07:000
106 BOSCHKER STIJN D 42 07:31:11:000
107 STOTZ PASCAL D 43 07:31:14:000
108 WAILIANG FREDERIC D 44 07:31:17:000
109 SEVENOIS WIM E 41 07:31:20:000
110 CANON HUBERT E 42 07:31:25:000
111 BOLSENBROEK MAURICE D 45 07:31:31:000
112 BOSQUET HUBERT E 43 07:31:39:000
113 BOISSEAU ERIC E 44 07:31:54:000
114 SMITS ERIK E 45 07:32:02:000
115 SCHOTT CHRISTIAN E 46 07:32:14:000
116 SANCHEZ JEAN MICHEL E 47 07:32:16:000
117 CHAMPEY LAURENT D 46 07:32:26:000
118 LINDELAUF CHARLES E 48 07:32:29:000
119 VECRIN JEAN CLAUDE G 1 07:32:32:000
120 VERBEEREN DAVY C 14 07:32:35:000
121 ROHMER MARC F 10 07:32:49:000
122 KOCK EDDY E 49 07:33:00:000
123 GALLOT JEROME E 50 07:33:21:000
124 DEKREON PIERRE F 11 07:33:34:000
125 CORBET PATRICK E 51 07:33:38:000
126 JENSEN CLAUS F 12 07:34:06:000
127 VAN KRIMPEN MARTIJN F 13 07:34:17:000
128 LIPP FRANCIS F 14 07:34:21:000
129 GIORGALLA SERGE E 52 07:34:27:000
130 GARY ALAIN G 2 07:34:54:000
131 ROOSE YANNIK D 47 07:35:07:000
132 SCHROEDER HERVE D 48 07:35:24:000
133 VANHEE DIRK D 49 07:35:30:000
134 CUENIN FABRICE D 50 07:35:39:000
135 BAKKER JOOST C 15 07:37:08:000
136 CARON XAVIER D 51 07:37:38:000
137 GOHN CHRISTIAN D 52 07:37:41:000
138 STREMKE SVEN D 53 07:37:48:000
139 WILSCHUT MAARTEN-JAN E 53 07:37:50:000
140 WITTER PETER C 16 07:38:10:000
141 DOYEN LIONEL D 54 07:38:41:000
142 MARTIN FABRICE E 54 07:39:13:000
143 DECOSTER BOUDEWIJN F 15 07:40:19:000
144 CANDEL FRITS E 55 07:40:26:000
145 SCHAAFSMA HARCO E 56 07:40:30:000
146 VANSTEENVOORT WIM D 55 07:40:53:000
147 OST LUC E 57 07:40:55:000
148 PETREMENT PHILIPPE D 56 07:41:18:000
149 CUNEY IGOR E 58 07:41:21:000
150 PERRIN JEAN F 16 07:41:23:000
151 HENNUY ERIC E 59 07:41:26:000
152 FAURE ANTHONY C 17 07:41:33:000
153 DEBERTIN DIRK E 60 07:42:34:000
154 DENDAL DIDIER E 61 07:42:39:000
155 SCHELZ MATTHIAS C 18 07:42:50:000
156 HERTEGONNE JOHAN F 17 07:44:01:000
157 LEHERLE VINCENT D 57 07:44:05:000
158 SINOT CHRISTIAN F 18 07:45:08:000
159 NIEUWENHUIS HENK E 62 07:45:29:000
160 DOMAIN CHRISTOPHE D 58 07:45:31:000
161 DE KOKER MARIO C 19 07:45:48:000
162 VAN DER JEUGDT JOHAN F 19 07:46:01:000
163 MANOJLOVIC BORISLAV F 20 07:46:35:000
164 LANDO PHILIPPE E 63 07:47:55:000
165 VERSTOCKEN TOM C 20 07:48:11:000
166 SMEETS ROGER D 59 07:48:16:000
167 SCHARTZ ALOYSE E 64 07:49:03:000
168 MICHIELS FILIP D 60 07:49:08:000
169 SCHAARS DIRK C 21 07:49:10:000
170 VRANCKEN JO F 21 07:49:17:000
171 DE SPLIEGELEER GEERT E 65 07:49:40:000
172 SCHWIRLEY MICHEL F 22 07:49:41:000
173 MOENS MARIO E 66 07:49:46:000
174 GORRY JACKY F 23 07:49:55:000
175 VRANCKEN CAMIEL D 61 07:50:04:000
176 GEENEN MARTYN D 62 07:50:07:000
177 WIETKIN ARTHUR F 24 07:50:09:000
178 VAN WIJK LEX E 67 07:50:23:000
179 LAVASTRE OLIVIER E 68 07:50:34:000
180 BRUNNER RENI A 1 07:50:37:000
181 DODDS ALAN F 25 07:50:52:000
182 HISSINK ANCO E 69 07:50:58:000
183 BERNARD VINCENT D 63 07:51:11:000
184 VAN LAERE KENNY C 22 07:51:32:000
185 PERSOON VINCENT C 23 07:51:40:000
186 HUBER CHRISTOPH E 70 07:51:41:000
187 STURM EDO E 71 07:51:55:000
188 DUIJKERS ROBERT C 24 07:51:56:000
189 VAN DOORN SANDER C 25 07:52:02:000
190 PARIS J.MICHEL F 26 07:52:13:000
191 VISSCHERS ERIC F 27 07:52:24:000
192 VAN GROOTHEEST PETER D 64 07:52:26:000
193 MAGGUILLI JEAN LUC D 65 07:52:34:000
194 PETIT SEBASTIEN C 26 07:53:02:000
195 LECHINE STEPHANE D 66 07:53:06:000
196 MONOT PASCAL E 72 07:53:31:000
197 VAN DOORN GIJS C 27 07:53:55:000
198 SMITS MICHEL C 28 07:54:00:000
199 JACQUIN GERARD E 73 07:54:02:000
200 COUFOURIER JEAN CLAUDE E 74 07:54:03:000
201 RIBBENS MARC E 75 07:54:15:000
202 DUBUIS GREGOIR E 76 07:54:22:000
203 WEVER PETER F 28 07:54:24:000
204 BOSCHKER MARCEL D 67 07:54:47:000
205 VAN DEN BROECK RUDY E 77 07:55:02:000
206 SAUVAGE THIBAULT C 29 07:55:33:000
207 HELLEBOSCH SVEN C 30 07:55:35:000
208 DICKHOUT JAN F 29 07:55:41:000
209 VAN HULLE MARIJN D 68 07:55:43:000
210 SCHEEBEN FRANK D 69 07:55:58:000
211 WYSS THOMAS E 78 07:56:00:000
212 NOELS GEERT E 79 07:56:14:000
213 ANGST JEAN MARC E 80 07:56:25:000
214 DE JONG PAUL C 31 07:56:42:000
215 VAN HERPE BART E 81 07:57:25:000
216 GONZALEZ FRANCISCO JAVIER E 82 07:57:35:000
217 WINANDY JEAN FRANCOIS E 83 07:57:45:000
218 HAMON LAURENT D 70 07:57:46:000
219 TUYTEL CEES E 84 07:58:22:000
220 DEBAYE SEBASTIEN D 71 07:58:28:000
221 LACOSTE J.LUC E 85 07:58:31:000
222 WIPFF GUY E 86 07:58:44:000
223 DUPONT J.YVES E 87 07:58:47:000
224 LEONARD CHRISTIAN F 30 07:58:50:000
225 JAMEAUX BERNARD F 31 07:58:59:000
226 DE VLEESCHOUWER DANNY F 32 07:59:05:000
227 JONGELING RUUD E 88 07:59:22:000
228 VAN HOOF FRANK D 72 08:00:01:000
229 JACOBS ROLAND F 33 08:00:39:000
230 VAN OSSELAER NICOLAS E 89 08:00:45:000
231 GOUW RENE E 90 08:01:03:000
232 BOUVERET ARNAUD D 73 08:01:08:000
233 GALLEZ OLIVIER D 74 08:01:12:000
234 GARNIER JEROME D 75 08:01:13:000
235 PREMEREUR GEERT D 76 08:01:19:000
236 HINDLE GRAHAM F 34 08:01:34:000
237 VAN OORSCHOT ERIC E 91 08:01:51:000
238 DEWINTER MICHEL F 35 08:02:19:000
239 DURUPT ALAIN F 36 08:02:40:000
240 SINOT PATRICK E 92 08:02:45:000
241 HANSEN LASSE D 77 08:02:47:000
242 MEULDERS RAYMOND F 37 08:03:10:000
243 MERABI HAMIDE D 78 08:03:36:000
244 VANMARSENILLE ROHNNY E 93 08:03:49:000
245 VANMARSENILLE FRANCIS E 94 08:03:50:000
246 LIEPOLD FRANK E 95 08:04:09:000
247 THEIN ALAIN E 96 08:04:19:000
248 ESCALIER YVES F 38 08:04:20:000
249 MORANDINI ALBERTO D 79 08:04:22:000
250 DOLF RODRIGUE C 32 08:04:37:000
251 HERNOLD KATJA AB 2 08:04:50:000
252 STELL JURGEN E 97 08:05:03:000
253 VERMEULEN RUUD E 98 08:05:33:000
254 VERHEYEN GERT D 80 08:05:52:000
255 GERAERTS DIMITRY D 81 08:05:58:000
256 KLAPPROTH MARIJAN D 82 08:06:05:000
257 HOLLANDER HUUB E 99 08:06:30:000
258 CATS WIM D 83 08:06:34:000
259 KNUDSEN ULRIK EGEBJERG C 33 08:06:43:000
260 HEIJLIGERS TON E 100 08:06:51:000
261 PAUL BERNARD E 101 08:07:17:000
262 GORIS EDDY E 102 08:07:19:000
263 DIHAEYERE PHILIP D 84 08:07:23:000
264 MOISSON JEAN FRANCOIS D 85 08:07:27:000
265 LIMPENS MINUS E 103 08:07:31:000
266 PAHLKE FRANK D 86 08:07:35:000
267 BODMER SANDER D 87 08:07:36:000
268 FRANCKAERT JORIS C 34 08:07:59:000
269 ZBICK MICHAEL E 104 08:08:07:000
270 SCOUARNEC PHILIPPE E 105 08:08:13:000
271 VAN NIEUWENBORG HERMAN F 39 08:08:16:000
272 VAN BAAK MARCEL D 88 08:08:27:000
273 PINGUET GUILLAUME C 35 08:08:29:000
274 CHAPON XAVIER C 36 08:08:53:000
275 TJOENS KAREL D 89 08:08:59:000
276 RUYMEN MARC E 106 08:09:05:000
277 VOS EGBERT E 107 08:09:44:000
278 VAN DER ZWAN KEES F 40 08:09:46:000
279 FOULON CEDRIC D 90 08:10:00:000
280 VAN DE KAMP SJOERD C 37 08:10:16:000
281 BORST MARTIJN C 38 08:10:20:000
282 TEMME ANDRE F 41 08:10:26:000
283 UITERWIJK WINKEL BERT E 108 08:10:28:000
284 CORNELISSE RONALD E 109 08:10:33:000
285 VERMEIRE WIM E 110 08:10:44:000
286 MOEYAERT ALEXANDER D 91 08:10:52:000
287 LEBRAY DAVID D 92 08:11:26:000
288 RINDT MARCEL E 111 08:11:31:000
289 VAN WEVERENBERGH BRUNO E 112 08:11:35:000
290 MURER J.PAUL G 3 08:12:02:000
291 HARTENSTEIN BERNHARD E 113 08:12:46:000
292 WANSINK GERRIT E 114 08:13:30:000
293 BRAYE MICHEL E 115 08:13:36:000
294 CARNEIRO BELMIRO E 116 08:13:52:000
295 DENECHERE MEHDY D 93 08:13:57:000
296 MANTEN ERNST JAN E 117 08:14:04:000
297 LINDEBOOM MAARTEN E 118 08:14:10:000
298 NOLLET PETER D 94 08:14:12:000
299 MATHIOT ALAIN E 119 08:14:14:000
300 FRANCHINI GILLES F 42 08:14:23:000
301 RUSSIAS JACQUES G 4 08:14:26:000
302 ROBIN GILLES F 43 08:14:33:000
303 KLENKLEN STEPHANE D 95 08:14:40:000
304 FOURMENTEL YANNICK E 120 08:14:59:000
305 PEETERS JOHAN D 96 08:15:05:000
306 RANSON JEAN HERVE E 121 08:15:12:000
307 CHENOIX RENE E 122 08:15:14:000
308 FRANCK THIERRY E 123 08:15:15:000
309 DUCROUX STEPHANE E 124 08:15:28:000
310 LOBREGT AART E 125 08:16:21:000
311 VAN HOUT ARJAN E 126 08:16:22:000
312 VAN STRATEN HANS E 127 08:16:22:000
313 BIBOULET NANS C 39 08:16:50:000
314 EYER MARC E 128 08:16:57:000
315 STOOP PIETER F 44 08:17:02:000
316 VANROMPAY JOHAN E 129 08:17:11:000
317 THOMSON EVENCE F 45 08:17:13:000
318 WOUTERS ROEL D 97 08:17:37:000
319 BRIJDER BERTIJN D 98 08:17:38:000
320 BERNAGAUD CYRILLE D 99 08:17:40:000
321 BRIOT JEAN-PAUL E 130 08:17:45:000
322 SEGHERS GEERT D 100 08:17:48:000
323 LE BAS MICKAEL D 101 08:18:08:000
324 DEIBER MARC D 102 08:18:35:000
325 WIMMER ERIC D 103 08:19:05:000
326 HOSY PATRICK E 131 08:19:15:000
327 POPOVICS PIERRE F 46 08:19:28:000
328 SCHROEN ARTHUR E 132 08:20:12:000
329 WILHELM OLIVIER E 133 08:20:33:000
330 VACQUERIE PIERRE E 134 08:20:43:000
331 BOSCH CHRISTIAN E 135 08:20:53:000
332 MORY PATRICK E 136 08:21:21:000
333 JENSEN NIELS JORN F 47 08:21:24:000
334 WELTE JEROEN D 104 08:21:37:000
335 BAUDSON DAVID D 105 08:22:02:000
336 HOENDERDOS DANIEL C 40 08:22:03:000
337 DUQUENOY BRUNO D 106 08:22:16:000
338 POTTIEZ JESSY D 107 08:22:27:000
339 SADOMES MICHEL E 137 08:22:30:000
340 DEVOOGHT LUC E 138 08:22:32:000
341 COURTET LAURENT E 139 08:22:37:000
342 EYSERMANS RENE F 48 08:22:48:000
343 VAN DE SANDE GUY D 108 08:22:50:000
344 JEANJEAN PIERRE C 41 08:23:00:000
345 MAZZARINI J.CLAUDE F 49 08:23:03:000
346 VANLERBERGHE STEVEN D 109 08:23:14:000
347 CRUTZEN MARC D 110 08:23:17:000
348 GIZFERT JENS E 140 08:23:18:000
349 HOCHEDE ANDRE G 5 08:23:30:000
350 WAARGEE STEVEN C 42 08:23:49:000
351 DE JONG ROB D 111 08:23:58:000
352 SCHWERZ SERGE F 50 08:24:02:000
353 GOEGAN PIERRE F 51 08:24:10:000
354 BERTHELOT J.WILFRID D 112 08:24:21:000
355 EELSINGH BERTO D 113 08:24:27:000
356 MEESTER ROBERT D 114 08:24:35:000
357 VANDERWIJST MARC D 115 08:24:38:000
358 AMANN RENE D 116 08:24:43:000
359 DE RIJCKE FONS E 141 08:24:48:000
360 MANNON ALAIN E 142 08:24:50:000
361 DESCHAMP OLIVIER E 143 08:24:50:000
362 VOGELEISEN FRANCK C 43 08:25:01:000
363 GALLIEN JEAN FRANCOIS E 144 08:25:09:000
364 VAN NUNEN BERTIL E 145 08:25:14:000
365 HUGUET MICHEL F 52 08:25:21:000
366 LE POTIER RAYMOND F 53 08:25:28:000
367 HEUTINCK MARCO E 146 08:25:30:000
368 VAN LEEUWEN WILBERT D 117 08:25:36:000
369 VAN BERS JORGEN D 118 08:25:42:000
370 ANNET JOEL D 119 08:25:45:000
371 NIJHOF SANDER C 44 08:26:15:000
372 VAN WINCKEL GEERT E 147 08:26:15:000
373 CAPOROSSI LAURENT D 120 08:26:20:000
374 DE VILLIERS JONATHAN D 121 08:26:21:000
375 DEWAELE MICHEL F 54 08:26:25:000
376 CUFER DANIEL E 148 08:26:38:000
377 DAVIDS JANS F 55 08:26:42:000
378 VAN DINGENEN JOS E 149 08:26:45:000
379 NAEF ANDREAS F 56 08:26:49:000
380 VAN GESTEL TWAN D 122 08:26:57:000
381 SCHILPEROORT ROB E 150 08:27:04:000
382 MASTERS JON E 151 08:27:44:000
383 FINOULST MARC E 152 08:28:09:000
384 CHOUFFART JACQUES F 57 08:28:13:000
385 ALISEO GIOVANNI F 58 08:28:18:000
386 HIRTZMANN JACKY D 123 08:28:19:000
387 SEUNTJENS TYN C 45 08:28:27:000
388 VERHAAR VINCENT E 153 08:28:33:000
389 RIKKEN DOLF JWA D 124 08:28:42:000
390 DE SMET PATRICK E 154 08:29:01:000
391 PILARD GAEL D 125 08:29:12:000
392 WATERHOUT BAS D 126 08:29:45:000
393 WILLEMS LUDWIG E 155 08:29:49:000
394 VAN BELLINGEN DANNY E 156 08:30:05:000
395 BOLLEN STIJN D 127 08:30:14:000
396 DE TROYER DIRK E 157 08:30:14:000
397 DEBARLE JACQUES E 158 08:30:16:000
398 PETER DE GRAUWE E 159 08:30:30:000
399 RIJNDERS ERWIN D 128 08:30:35:000
400 LUYPAERT DIETER C 46 08:30:53:000
401 AUDREN DAVID D 129 08:30:56:000
402 VERHAEGEN MARK D 130 08:31:04:000
403 GIRARDI BRUNO F 59 08:31:09:000
404 BEAUVAIS GILLES E 160 08:31:10:000
405 PENDERS FRANCIS D 131 08:31:27:000
406 PEERDEN MARCEL E 161 08:31:46:000
407 BERNARD ROBERT D 132 08:32:05:000
408 CEULEMANS HANS C 47 08:32:10:000
409 VAN WEVERENBERGH JORIS E 162 08:32:18:000
410 DENIS SEBASTIEN D 133 08:32:24:000
411 VANCRAYBEX IVES D 134 08:32:50:000
412 VAN RHOON RONALD F 60 08:32:59:000
413 DE BAERDEMAEKER CHRIS D 135 08:32:59:000
414 SCHOTT PATRICK F 61 08:33:01:000
415 VAN BEUNINGEN ALBERT E 163 08:33:06:000
416 ROBERI JEAN PIERRE E 164 08:33:25:000
417 GRADOZ CHRISTIAN F 62 08:33:29:000
418 HERNANDEZ FRANCISCO D 136 08:33:37:000
419 BOOT JOHANNES C 48 08:34:00:000
420 SILVIUS PETER E 165 08:34:02:000
421 MILLET LAURENT D 137 08:34:29:000
422 VANNESTE PIETER D 138 08:34:37:000
423 HANTZ JACQUES F 63 08:34:56:000
424 GOEBEL EMILE F 64 08:35:09:000
425 ADAM MARC E 166 08:35:34:000
426 LESENNE BRUNO E 167 08:35:43:000
427 LOMBARDO BRUNO D 139 08:36:01:000
428 ROUSSEY JEAN PASCAL E 168 08:36:24:000
429 VAN DER WAL HILCO D 140 08:36:30:000
430 DEZETAVE JANICK F 65 08:36:49:000
431 BARTIAUX ROGER F 66 08:36:53:000
432 MALENGREAUX JEAN-LOUIS E 169 08:36:57:000
433 VAN WEZEL MICHEL E 170 08:37:03:000
434 BOSMAN DENNIS D 141 08:37:04:000
435 VAN ES WILLIAM D 142 08:37:05:000
436 VERPOORTE JACOBUS D 143 08:37:09:000
437 MULDERS RUUD F 67 08:37:27:000
438 VAN DER WERF TEUNIS F 68 08:37:34:000
439 VAN TITTELBOOM CRIS D 144 08:37:47:000
440 VERNAET RONY E 171 08:37:48:000
441 ISEBAERT PAUL F 69 08:37:56:000
442 ROOK JHON F 70 08:37:59:000
443 CONNAULT ROMAIN C 49 08:38:00:000
444 LUNEAU NICOLAS E 172 08:38:10:000
445 VAN HONTEH BERT F 71 08:38:34:000
446 REYNES MIMO PEDRO ANTONIO C 50 08:38:37:000
447 LIEBREGTS ARIE E 173 08:38:55:000
448 VOESTERZOONS BERT D 145 08:39:21:000
449 GONZALEZ GARCIA ANGEL D 146 08:39:36:000
450 LEVEQUE ERIC E 174 08:39:44:000
451 MOREY GARAU XAVIER D 147 08:39:55:000
452 DE RUYCK KOEN E 175 08:40:08:000
453 ARNAULT BRUNO E 176 08:40:38:000
454 DE HAAN HORRIE E 177 08:40:58:000
455 EVERAERT MICHEL E 178 08:41:15:000
456 MAHUT BRUNO E 179 08:41:17:000
457 ESSELIN GILLES E 180 08:41:18:000
458 STAVORINUS CHRISTIAAN D 148 08:41:21:000
459 GOUPILLE LIONEL D 149 08:41:29:000
460 BUISSON STEPHANE E 181 08:41:30:000
461 VLEGELS JAN E 182 08:41:33:000
462 LAMBERT REGGY D 150 08:41:45:000
463 TRUYENS GUST F 72 08:42:15:000
464 MARQUIS JEAN G 6 08:42:17:000
465 BAUCHET LAURENT E 183 08:42:30:000
466 RASSET STEPHANE E 184 08:42:32:000
467 ESQUENET NICOLAS D 151 08:42:48:000
468 MOUGEY J.FRANCOIS E 185 08:42:54:000
469 JARRY MICHEL D 152 08:42:58:000
470 CHAUMARD PHILIPPE F 73 08:43:36:000
471 BANKEN HANS E 186 08:43:40:000
472 METZEMAKERS PAUL D 153 08:43:55:000
473 STRUIKSMA JAN F 74 08:43:59:000
474 DE L ARBRE DANIEL E 187 08:43:59:000
475 DE WITTE FILIP D 154 08:44:21:000
476 SEVERINS FRANK E 188 08:44:30:000
477 LEMOSY CLAUDE F 75 08:44:42:000
478 GAGNOT MICHAEL D 155 08:45:03:000
479 NIJHOF BIANCA AB 3 08:45:05:000
480 AMERLYNCK FREDERIK D 156 08:45:55:000
481 ROVERS HAR F 76 08:45:58:000
482 GOUW RON E 189 08:46:21:000
483 BREHERET PIERRICK E 190 08:46:26:000
484 MONNIE DOMINIQUE F 77 08:46:42:000
485 CHANTOISEAU PHILIPPE F 78 08:46:50:000
486 SEGUIN ANTOINE C 51 08:46:54:000
487 HINK HUBERT D 157 08:47:11:000
488 PFRIMMER LAURENT D 158 08:47:11:000
489 DECAUWERT JEAN LUC F 79 08:47:16:000
490 SCHEEPERS WILLEM E 191 08:47:25:000
491 DRIESSEN GER F 80 08:47:47:000
492 LEKKERKERKER JACO D 159 08:47:50:000
493 JACOBS THEO E 192 08:48:02:000
494 CLERICI LUDOVIC F 81 08:48:13:000
495 EMORINE PASCAL E 193 08:48:39:000
496 MOEJBAEK OLE F 82 08:48:41:000
497 GOURMET PATRICK E 194 08:48:54:000
498 ALEXANDERSEN SOEREN D 160 08:48:54:000
499 COLAUTTI LOUIS F 83 08:48:56:000
500 WIND WALTER D 161 08:48:57:000
501 TELLIER JULIEN C 52 08:49:04:000
502 VERGRIETE NICOLAS D 162 08:49:07:000
503 VAN MUNSTER FLORIS D 163 08:49:17:000
504 RAAIJMAKERS CHRISTIAN E 195 08:49:18:000
505 NULENS BENNY F 84 08:49:27:000
506 HERMANS MARC D 164 08:49:28:000
507 HOFFMAN MICHAEL D 165 08:49:30:000
508 HARTMANN MICHEL F 85 08:49:40:000
509 ROOSMA JAAP E 196 08:50:09:000
510 CORNELIS LUC E 197 08:50:10:000
511 ADNET JEAN MARC E 198 08:50:29:000
512 BACK JAN F 86 08:50:47:000
513 MAIRE PASCAL E 199 08:51:04:000
514 VRINZEN RONALD D 166 08:51:23:000
515 RONVAL AXEL D 167 08:51:29:000
516 DELGRANGE ALAIN F 87 08:51:31:000
517 HENDRIKS HUUB F 88 08:51:56:000
518 WATTS ROGER D 168 08:51:57:000
519 SCHALCKENS CHRIS E 200 08:52:00:000
520 WALTA EDSART C 53 08:52:07:000
521 ROMBEEK NANNO E 201 08:52:12:000
522 STOK HARRO D 169 08:52:21:000
523 VALLOT CHRISTOPHE E 202 08:52:32:000
524 GIGOT VINCENT D 170 08:52:34:000
525 HILDGEN PAUL E 203 08:52:36:000
526 DEN HAAN CORNELIS E 204 08:52:50:000
527 TRIOLET WILLIAM G 7 08:52:52:000
528 REMUSON ALAIN E 205 08:53:00:000
529 MAGNIE DAVID D 171 08:53:05:000
530 D HOOGE MARC E 206 08:53:08:000
531 BOOIJ PIETER D 172 08:53:27:000
532 WEBER GUY E 207 08:53:46:000
533 SAUVE STEPHANE D 173 08:54:00:000
534 BOSCH JAAP D 174 08:54:06:000
535 GADE HENRIK D 175 08:54:20:000
536 MAN BART D 176 08:54:21:000
537 WICKE PHILIP E 208 08:54:55:000
538 DOSSCHE FILIP E 209 08:55:10:000
539 DE MOL DIRKB E 210 08:55:13:000
540 HOOGENBOOM ARJEN E 211 08:55:16:000
541 VAN GULIK JAN E 212 08:55:24:000
542 VAN WIJK GERARD E 213 08:55:24:000
543 OCKELOEN CHRIS E 214 08:55:27:000
544 DE SCHEPPER TOM D 177 08:55:37:000
545 VOLLBRACHT DOMINIQUE D 178 08:55:47:000
546 BRETON ERIC F 89 08:55:48:000
547 STERKX JURGEN C 54 08:56:14:000
548 DUMELIE WIM C 55 08:56:21:000
549 ALBERT BORIS E 215 08:56:21:000
550 SPOOR JAAP F 90 08:56:40:000
551 HINNEMAN RONNY D 179 08:56:41:000
552 SEYNS GUNTER D 180 08:56:49:000
553 WUHMS GERARD E 216 08:56:54:000
554 SIEBENS DAVY C 56 08:57:23:000
555 VAES WIM F 91 08:57:30:000
556 JENOT EMILE G 8 08:57:44:000
557 JEPSEN CARTSEN D 181 08:57:44:000
558 RIOU MICHEL F 92 08:57:49:000
559 VANHEVEL RIK E 217 08:57:53:000
560 BRUINSMA EELCO D 182 08:58:02:000
561 VANBERGHEN MARC E 218 08:58:29:000
562 MONNISSEN GUY D 183 08:58:39:000
563 ROBILLART FABRICE D 184 08:58:47:000
564 HENDRICKS PATRICKS E 219 08:58:48:000
565 BOELSKIFTE SUNE D 185 08:58:50:000
566 LOUYET MARCEL F 93 08:58:59:000
567 NIKS WOUTER D 186 08:59:00:000
568 ROELOFS NOUD F 94 08:59:01:000
569 MATTINA CARMELO R 1 08:59:16:000
570 WESSELS PETER D 187 08:59:19:000
571 BAT CYRILLE D 188 08:59:27:000
572 FREDRICK GUY E 220 08:59:51:000
573 TRONEL J.JACQUES F 95 08:59:58:000
574 MATHIEU BRUNO D 189 09:00:00:000
575 DURAND BENOIT E 221 09:00:21:000
576 PETER DANIEL F 96 09:00:34:000
577 URBAIN PASCAL D 190 09:00:35:000
578 STENVERS NUHI D 191 09:00:41:000
579 VAN TEEFFELEN MAARTEN D 192 09:00:57:000
580 OUDSHOORN LOUIS D 193 09:01:02:000
581 VAN ZWOLGEN HERMAN G 9 09:01:13:000
582 MOUTON ETIENNE E 222 09:01:20:000
583 PRENEN PATRICK E 223 09:01:38:000
584 HERMANS LIEVEN D 194 09:01:38:000
585 DAEM PAUL G 10 09:01:49:000
586 BASCOP PASCAL D 195 09:01:56:000
587 VAN DER MEER ROB F 97 09:02:00:000
588 HOCHSTENBACH JO F 98 09:02:01:000
589 VAN OORSCHOT JOHN E 224 09:02:03:000
590 VERREUSEL JACK E 225 09:02:04:000
591 KRIJGER BOB D 196 09:02:10:000
592 MOLS NICO D 197 09:02:15:000
593 LANKHEET RONALD E 226 09:02:19:000
594 TER HART MARCEL D 198 09:02:19:000
595 GIRARDOT PASCAL D 199 09:02:20:000
596 HENDRIKS PETER E 227 09:02:27:000
597 BLOM FONS E 228 09:02:46:000
598 HERBIET BENEDICTE A 2 09:02:58:000
599 VERBOORD JAN E 229 09:03:03:000
600 FOULON DAVID D 200 09:03:16:000
601 DEVRESSE PHILIPPE E 230 09:03:30:000
602 FEYAERTS JAN D 201 09:03:35:000
603 WILLEMS LUC E 231 09:03:41:000
604 SURPIERRE THONY C 57 09:03:47:000
605 GENTY ALAIN E 232 09:03:57:000
606 HAKKERS FRANS F 99 09:04:02:000
607 MASSELUS KURT D 202 09:04:19:000
608 LABRUYERE BRUNO E 233 09:04:33:000
609 VAN DER SCHAAF SJOERD C 58 09:04:39:000
610 GOUDESEUNE HEIN D 203 09:04:41:000
611 VANNSON ERIC D 204 09:04:42:000
612 CELEN GEERT D 205 09:05:19:000
613 VAN LIER FRANK E 234 09:05:23:000
614 PEDERSEN JOHN E 235 09:05:37:000
615 RENIER ALAIN D 206 09:06:31:000
616 LOOTENS CHRISTIAN F 100 09:06:52:000
617 HAEMERS BRUNO C 59 09:06:58:000
618 COCHOIS FRANCK E 236 09:07:14:000
619 SALMON JANET AB 4 09:07:27:000
620 NOUWENS THEO D 207 09:07:57:000
621 MALLIEN PHILIPPE E 237 09:08:16:000
622 VAN ENGELEN GERALD E 238 09:08:18:000
623 KAUFFMANN JEAN JACQUES F 101 09:08:28:000
624 CLERC DANIEL F 102 09:08:31:000
625 BUCZYNSKI OLIVIER C 60 09:08:39:000
626 LEFEVERE MARC E 239 09:09:06:000
627 DE ROECK PHILIPPE D 208 09:09:20:000
628 GUERRERO JOSE GABRIEL F 103 09:09:41:000
629 MALLANT RONALD F 104 09:09:51:000
630 MARGELIN JEAN PIERRE E 240 09:09:58:000
631 LAMERA ROBERTO D 209 09:10:02:000
632 DUMEIGE CHRISTOPHE E 241 09:10:16:000
633 LEFEVRE KOEN E 242 09:10:37:000
634 TRUIJENS BART D 210 09:11:12:000
635 LENSELINK JOS E 243 09:11:28:000
636 MARQUILIE FLORENT D 211 09:11:42:000
637 FLORIE ERWIN D 212 09:11:52:000
638 CARETTI PATRICE E 244 09:11:55:000
639 NICOLIER GABRIEL F 105 09:12:02:000
640 NERSCHUREN JAN F 106 09:12:06:000
641 BAUDART ERIC E 245 09:12:09:000
642 CECCATO J.LUC F 107 09:12:09:000
643 GRIMAUD JEAN MARC F 108 09:12:22:000
644 SCHUURBIERS FRANS E 246 09:12:23:000
645 BURET MICHEL F 109 09:12:35:000
646 DUJARDIN PASCAL E 247 09:12:48:000
647 STIBLER YANN C 61 09:13:06:000
648 RICHALET MICHEL G 11 09:13:10:000
649 FOSSEPREZ AUGUSTIN D 213 09:13:19:000
650 JACQUEZ PHILIPPE F 110 09:13:25:000
651 RYCKBOSCH ETIENNE E 248 09:13:36:000
652 CUBAT JEAN MICHEL E 249 09:13:57:000
653 JUSTENS MARC E 250 09:14:08:000
654 MOREAU GUNTER D 214 09:14:08:000
655 DE SCHRYVER FRANS F 111 09:14:15:000
656 MEINECHE IB E 251 09:14:19:000
657 SEGEREN FLIP F 112 09:14:19:000
658 VAN STEEG GERT JAN D 215 09:14:22:000
659 ARENS JEAN CLAUDE F 113 09:15:21:000
660 JAMOT OLIVIER E 252 09:15:24:000
661 GUILLON GERARD G 12 09:15:34:000
662 MULDERS BART F 114 09:15:51:000
663 MARTIN DOMINIQUE E 253 09:15:56:000
664 MULDERS GERARD E 254 09:16:04:000
665 VANDERMAST GUIDO E 255 09:16:13:000
666 FORTUN HERVE E 256 09:16:24:000
667 FREDERICK PHILIPPE E 257 09:16:33:000
668 HUBREGTSE HUUB D 216 09:16:38:000
669 BLANCHART SEBASTIEN D 217 09:16:42:000
670 PLUQUET GEORGES F 115 09:17:41:000
671 HEMMER SHAULA A 3 09:17:45:000
672 VAN OORSCHOT TON E 258 09:18:02:000
673 NEIJLAND MARC D 218 09:18:04:000
674 HATSADOURIAN PHILIPPE D 219 09:18:34:000
675 MAINEULT BRUNO E 259 09:18:56:000
676 MICHEL FRANK E 260 09:19:10:000
677 DUBAIL CATHERINE AB 5 09:19:39:000
678 JORIS ALEX F 116 09:19:42:000
679 MARYNISSEN FRANS F 117 09:19:50:000
680 GRAY SUSAN AB 6 09:19:51:000
681 VAN DER KOLK THIJS E 261 09:20:38:000
682 GLADINES SVEN D 220 09:21:22:000
683 NASH DAVID G 13 09:21:23:000
684 COUREAU THIERRY E 262 09:21:28:000
685 LINKIS JACOB C 62 09:21:29:000
686 CRE GILBERT E 263 09:21:40:000
687 DUSSALT PIERRE D 221 09:21:54:000
688 DONKERS GERWIN E 264 09:22:11:000
689 VAN HOUT JAN D 222 09:22:13:000
690 DE MOERLOOSE PAUL E 265 09:22:48:000
691 GODLIEB RENE E 266 09:22:50:000
692 KLEIN GABRIEL E 267 09:22:52:000
693 VITREY JEAN F 118 09:23:20:000
694 DE BOER COR D 223 09:23:35:000
695 CLEMMINCK JORIS C 63 09:23:53:000
696 JANS AD D 224 09:24:31:000
697 PETEUL BRUN O D 225 09:24:33:000
698 LINKIS KASPAR F 119 09:24:36:000
699 MULLER FABRICE E 268 09:24:50:000
700 VAN DALEN TON E 269 09:25:03:000
701 KIENTZY PHILIPPE F 120 09:25:12:000
702 SCHOOLTINK WIBO D 226 09:25:38:000
703 ALGOET FRANK D 227 09:25:59:000
704 MANDERS MARTIEN E 270 09:26:11:000
705 DURAME ERIC E 271 09:26:16:000
706 BENTVELD DANIEL D 228 09:26:25:000
707 ROUSSEAU PIERRE E 272 09:26:49:000
708 JOHANSEN KIM F 121 09:27:27:000
709 COLLET DOMINIQUE F 122 09:27:48:000
710 TRINQUART PHILIPPE E 273 09:28:17:000
711 CHAVANNE PIERRE ALAIN D 229 09:28:23:000
712 DIETL KLAUS E 274 09:28:33:000
713 SIMOENS OLE ANKER E 275 09:28:42:000
714 VAN CAPPELLEN PETER E 276 09:29:21:000
715 COURTZ J.PAUL F 123 09:29:30:000
716 BONAFOS BENJAMIN D 230 09:29:37:000
717 ROERDAM THOMAS F 124 09:30:35:000
718 SCHAFF PHILIPPE E 277 09:30:41:000
719 LINNERT HEIKO D 231 09:30:45:000
720 LE DORLOT PHILIPPE E 278 09:30:53:000
721 ACHARD ALBINE AB 7 09:30:54:000
722 BUSSER WOLTER F 125 09:31:01:000
723 VERBEEK BRAM F 126 09:31:41:000
724 MUHLBAUER PETER E 279 09:31:54:000
725 DANCKAERT NOEL E 280 09:32:03:000
726 ORLIEN JESPER E 281 09:32:15:000
727 LUNEL MATTHIEU D 232 09:32:17:000
728 VAN HEES JORIS D 233 09:32:23:000
729 HAARNAGEL JENS E 282 09:32:26:000
730 COURBOULIN DOMINIQUE E 283 09:32:31:000
731 SPEKSNIJDER RENS E 284 09:32:52:000
732 VERSCHUEREN FIEKE A 4 09:33:39:000
733 SAUTER SVEN E 285 09:33:40:000
734 VAN POUCKE JOHAN D 234 09:33:48:000
735 VAN IERSEL AD E 286 09:33:50:000
736 CENSE ARJEN D 235 09:33:51:000
737 NIELSEN KJELD F 127 09:33:52:000
738 TAS WALLY D 236 09:33:57:000
739 HUYBRECHTS ERIK E 287 09:34:10:000
740 WIJNS STEVEN D 237 09:34:49:000
741 HATCHER STEVE D 238 09:35:05:000
742 CHILMAN TREVOR D 239 09:35:14:000
743 PEFEROEN PIETER D 240 09:35:16:000
744 MAGNIE JEAN CLAUDE F 128 09:35:47:000
745 LEPECQ ALAIN F 129 09:35:48:000
746 LEMPEREUR SERGE E 288 09:36:03:000
747 SIGRIST PASCAL E 289 09:36:06:000
748 CHANTOME PASCAL F 130 09:36:15:000
749 RICHE BENOIT C 64 09:36:16:000
750 DOBLER DENIS F 131 09:36:26:000
751 BOITEUX YVON G 14 09:36:52:000
752 WAHL ALAIN E 290 09:37:05:000
753 VAN ESPEN JOHAN D 241 09:37:16:000
754 VERMEULEN KOEN D 242 09:37:24:000
755 GADIOU PIERRE F 132 09:37:40:000
756 DALSTRA THEO E 291 09:37:46:000
757 VAN VOOREN WIM E 292 09:38:05:000
758 VERMUE MARTIN E 293 09:38:07:000
759 PARDO GIUSEPPE F 133 09:38:08:000
760 GREMMEN JOS E 294 09:38:17:000
761 VAN DORP DENNIS D 243 09:38:28:000
762 GAKES ARJEN E 295 09:38:57:000
763 SOEBY PETER E 296 09:39:03:000
764 OZIOL BERNARD F 134 09:39:16:000
765 VANTHOMME BART D 244 09:39:21:000
766 MAILLARD DANIEL E 297 09:39:27:000
767 HERMANS JOS F 135 09:39:32:000
768 FICTORIE WOUT E 298 09:39:37:000
769 WISSEMA ERIK D 245 09:39:41:000
770 JVERSEN SOEREN F 136 09:39:50:000
771 VAN HATTUM PAUL E 299 09:40:15:000
772 DE ZUTTER GEERT E 300 09:41:48:000
773 RUTTER RUUD F 137 09:43:25:000
774 SCHOSTAG JAN C 65 09:44:03:000
775 KOLLER MARTIN E 301 09:44:04:000
776 DERKSEN RONNIE F 138 09:44:17:000
777 VINCENTEN CHRIST F 139 09:44:26:000
778 GOEDE PETER F 140 09:44:38:000
779 LAMOTTE CHRISTIAN F 141 09:45:35:000
780 MESNIL ALAIN E 302 09:45:40:000
781 DUBOIS GERARD G 15 09:45:40:000
782 BOBBINK HENK F 142 09:46:02:000
783 RIGOT PHILIPPE E 303 09:46:11:000
784 DE LANGUE PIET E 304 09:46:17:000
785 SCHOBBEN ED E 305 09:46:44:000
786 STOUTJESDIJK DINCO E 306 09:46:44:000
787 DE GRAAUW MICHEL D 246 09:46:58:000
788 NOGUES LAURENT E 307 09:47:02:000
789 DERKSEN BENNIE F 143 09:47:26:000
790 JUMEAUX PHILIPPE D 247 09:47:35:000
791 DE WISPELAERE FRANKY E 308 09:48:45:000
792 BUYSSE LUC F 144 09:48:50:000
793 WITTEBROOD MARCEL F 145 09:49:12:000
794 DESMAREZ CHRISTOPHE E 309 09:49:16:000
795 FINCK JEAN CLAUDE F 146 09:49:20:000
796 HANIQUE BERNARD E 310 09:49:38:000
797 BRAL JHONNY E 311 09:49:39:000
798 MARTIN BRUNO E 312 09:50:16:000
799 RUTH DIDIER D 248 09:50:16:000
800 BEERENS GUY F 147 09:50:18:000
801 STROOMER BOB C 66 09:50:38:000
802 HERNANDEZ FRANCIS G 16 09:50:41:000
803 HARTMAN WILLEM G 17 09:50:50:000
804 ALLAERT PETER D 249 09:51:08:000
805 BENARD RICHARD E 313 09:51:21:000
806 GRUBBEN LOUIS F 148 09:51:37:000
807 VAN DONGEN WENDY AB 8 09:51:49:000
808 LIMONIER PASCAL F 149 09:51:49:000
809 KRUK HARRY F 150 09:51:52:000
810 BENDERS PETER E 314 09:52:00:000
811 GUBBELS BART D 250 09:52:13:000
812 KIST SILKE A 5 09:52:27:000
813 SPIT WOUTER D 251 09:52:33:000
814 BAAN KEES E 315 09:52:55:000
815 VAN ZIJL DENNIS D 252 09:53:15:000
816 VAN DER WINDT JAN WILLEM D 253 09:53:15:000
817 GUBLER BERT E 316 09:53:26:000
818 MAGNIE MOISE D 254 09:53:53:000
819 LUTTIKHUIZEN CEES D 255 09:54:32:000
820 LUFTING LUC E 317 09:54:49:000
821 PICOLLI THIERRY D 256 09:55:23:000
822 EIKELENBOOM NIEK D 257 09:56:24:000
823 BRACKE GEORGES F 151 09:57:32:000
824 PIETERS LUC G 18 09:57:49:000
825 MOREL VERONIQUE AB 9 09:58:15:000
826 DESTREBECQ YOHAN D 258 09:58:27:000
827 BOOGAARD RONNY E 318 09:58:47:000
828 TE BOEKHORST WIL F 152 09:59:08:000
829 DEVOS KITY AB 10 09:59:16:000
830 VAUTRIN ETIENNE E 319 09:59:42:000
831 BROTELANDE XAVIER D 259 09:59:43:000
832 THEUS LUDO E 320 09:59:52:000
833 MARTIN STEPHANE CLAUDE D 260 09:59:58:000
834 MARSEGUERRA PIERRE E 321 10:00:07:000
835 SUIKER STEPHAN D 261 10:00:32:000
836 KOORD MARK D 262 10:00:45:000
837 SWARTELE MARC E 322 10:01:10:000
838 PEDERSEN ESKILD F 153 10:01:24:000
839 LOUIS PASCAL E 323 10:01:58:000
840 DE GOUW GIELJAN F 154 10:01:59:000
841 DONKERS CEES F 155 10:04:53:000
842 PLATON DIDIER F 156 10:04:59:000
843 HENRIKSEN TORBEN F 157 10:05:29:000
844 LAUNAY FRANCOIS F 158 10:06:30:000
845 RICO LAURE AB 11 10:06:36:000
846 NOGUE PHILIPPE E 324 10:06:40:000
847 COLAUTTI DANILO F 159 10:06:51:000
848 VAN HAMERSVELD MICHIEL D 263 10:06:51:000
849 WILLEMSENS LUC E 325 10:07:36:000
850 COLIN JACKY F 160 10:07:39:000
851 COFFINET BRUNO E 326 10:07:42:000
852 ROETMAN LIZE A 6 10:07:44:000
853 JEANROY CLAUDE F 161 10:08:05:000
854 WALENTIN ARSENE F 162 10:08:35:000
855 VAN OS BAS D 264 10:08:40:000
856 HYLAND MARK E 327 10:08:47:000
857 DUFRANE PIERRE E 328 10:09:02:000
858 VAN DER MEER ROB E 329 10:09:40:000
859 VANDEN WYNEAERT DIMITRI D 265 10:09:46:000
860 LABOUZ STEPHAN E 330 10:09:50:000
861 SOMHORST JOHAN E 331 10:09:55:000
862 EGERING BO E 332 10:09:59:000
863 BUIJS MARCO E 333 10:12:11:000
864 VAN DIJK KO F 163 10:13:37:000
865 DE WAAL MARLON AB 12 10:13:45:000
866 DEMEESTER DAVID D 266 10:13:56:000
867 COPPENS RUDY F 164 10:14:17:000
868 KRISTENSEN GERT F 165 10:14:19:000
869 BOSMA WILLEM F 166 10:14:31:000
870 BANNINK FRANS E 334 10:14:47:000
871 COULONVAUX JEAN JACQUES E 335 10:15:18:000
872 RASKIN MADELEINE B 1 10:15:33:000
873 MARCUZZI LAURENT E 336 10:16:38:000
874 DETHIER ALAIN E 337 10:16:48:000
875 DEFAUX GILBERT G 19 10:16:51:000
876 STREEL BRUNO E 338 10:16:56:000
877 STREEL ETIENNE E 339 10:16:58:000
878 ATZORI J.MARIE F 167 10:17:01:000
879 POUJADE JEAN CLAUDE F 168 10:17:07:000
880 AL BART D 267 10:17:10:000
881 BENDERS EDWIN D 268 10:17:15:000
882 VANN DER SOMMEN TON F 169 10:17:44:000
883 DEMARCHE LEOPOLD G 20 10:18:51:000
884 LEYDER DIDIER E 340 10:18:52:000
885 VAN DER LINDEN PIET E 341 10:19:52:000
886 HOOGENEDAAN JACO E 342 10:20:29:000
887 VALLERAND ERIC D 269 10:20:40:000
888 SORENSEN VAGN G 21 10:21:10:000
889 MORTIER KJELL D 270 10:21:14:000
890 VAN DE WALLE JORIS E 343 10:21:17:000
891 RENSON CLAUDE D 271 10:21:18:000
892 VAN DEN HEUVEL FRANK E 344 10:21:20:000
893 BLOM HANS D 272 10:21:30:000
894 DERNIERE MINUTE J 1 10:21:40:000
895 VAN ASSELT JAN WILLEM E 345 10:22:00:000
896 WILLEMSTEIJN PLEUN F 170 10:22:15:000
897 JACOB FRANCIS F 171 10:22:28:000
898 VAN PEER PAUL E 346 10:22:33:000
899 VAN DE VYVER FILIP E 347 10:22:47:000
900 MELON MICHEL F 172 10:22:48:000
901 BLIKI WESLEY D 273 10:22:59:000
902 CHANTEUX PHILIPPE G 22 10:23:03:000
903 DITTMAR REMCO C 67 10:23:07:000
904 COX JACK D 274 10:23:19:000
905 VANGROENENDAEL FRANCIS E 348 10:23:56:000
906 MEULEMANS KEES F 173 10:24:43:000
907 D’HULSTER BART D 275 10:24:48:000
908 LUMENS TON E 349 10:25:07:000
909 VAN KATS LEX F 174 10:25:36:000
910 ORSEL MARTIN F 175 10:25:57:000
911 DE WILDE ANDRE F 176 10:26:07:000
912 PERROUELLE CHRISTIAN G 23 10:27:38:000
913 MARIS WILLEM F 177 10:27:45:000
914 KRAAL THOMAS D 276 10:28:15:000
915 WISSE ANE PIETER D 277 10:28:16:000
916 PHILIPAERT CHRISTOPHE R 2 10:28:37:000
917 VAN HOUTVINCK FRANCOISE AB 13 10:28:42:000
918 POSTEMA HENNY E 350 10:28:52:000
919 DINGJAN RON F 178 10:29:05:000
920 KIESEL MANFRED E 351 10:29:41:000
921 VISSER STELLA A 7 10:29:56:000
922 VAN DER WERFF STEVEN D 278 10:30:20:000
923 CAUMONT ALAIN E 352 10:31:38:000
924 KOLB FRIED E 353 10:31:44:000
925 CARSTENS PAUL D 279 10:31:46:000
926 BELGUISE HERVE F 179 10:31:57:000
927 DE WEERD PETER D 280 10:32:11:000
928 VINCENTEN MARIUS F 180 10:32:14:000
929 BEURET JEAN MICHEL F 181 10:32:15:000
930 LORRAIN PASCAL E 354 10:32:38:000
931 MALOSSE CHRISTIAN F 182 10:32:43:000
932 HAMBURG DION F 183 10:33:06:000
933 ROTH LAURENT F 184 10:34:03:000
934 GARRES MIKE D 281 10:34:23:000
935 BUREAU FRANCOIS D 282 10:34:52:000
936 PIN JEROME D 283 10:34:53:000
937 WISSE MARIUS D 284 10:36:19:000
938 NANNE SANDER D 285 10:37:25:000
939 DUVINAGE JEAN G 24 10:38:03:000
940 MOERCH HELMER G 25 10:38:46:000
941 PELTIER FRANCIS G 26 10:39:05:000
942 GRAVEN JOB C 68 10:39:11:000
943 VAN LENT CEES E 355 10:39:15:000
944 VERHAEGHE LUC E 356 10:39:21:000
945 VAN ECK BERT F 185 10:39:39:000
946 VAN WIJMELBEKE JOHAN F 186 10:39:50:000
947 GARUZ JEAN LOUIS F 187 10:40:22:000
948 DE VRIES GERHARD F 188 10:40:46:000
949 WILLEMS MARK E 357 10:40:52:000
950 VRIENS BENNY D 286 10:41:17:000
951 MOERMAN GEERT E 358 10:41:21:000
952 DE LEEUW JOOP F 189 10:41:23:000
953 LAVSTSEN SVEND F 190 10:42:31:000
954 EICHENBERGER OLIVIER E 359 10:42:36:000
955 NIELSEN JOHNNY E 360 10:42:37:000
956 VAN LEEUWEN SIMON F 191 10:42:57:000
957 KONING HANS E 361 10:42:59:000
958 HARTOG JACOB F 192 10:43:08:000
959 KJELGARD PIA AB 14 10:43:37:000
960 VAN GEET LEON E 362 10:44:33:000
961 JONKMAN GERRIT F 193 10:44:47:000
962 OOSTERWIJK MARK D 287 10:44:47:000
963 DERNIERE MINUTE J 2 10:45:28:000
964 BRUG HENK JAN D 288 10:45:29:000
965 FARGUES HENRI G 27 10:46:34:000
966 CAUDLE TRACEY AB 15 10:46:58:000
967 VAN DORP JOHN F 194 10:47:03:000
968 NICOU CHRISTIAN F 195 10:47:23:000
969 DEUTEN JAN E 363 10:47:23:000
970 VAN LOOM LUDWIG E 364 10:47:44:000
971 MAES RINO E 365 10:48:03:000
972 LEHNERT OLIVIER D 289 10:48:05:000
973 WEEGHMANS KOEN C 69 10:48:30:000
974 VANHOUTTE PIET E 366 10:48:34:000
975 VAN DER LAGEMAAT JAKOB F 196 10:48:35:000
976 VAN DER ZIJDEN MARTIJN D 290 10:50:05:000
977 KUIPERS RAMON E 367 10:50:07:000
978 BROUWERS OSCAR E 368 10:50:19:000
979 SCHEIDEGGER GOTTHELF G 28 10:50:33:000
980 POSTHUMA SJOUKE E 369 10:50:36:000
981 RODEWIJK HANS F 197 10:50:43:000
982 TOERING MARCEL C 70 10:51:06:000
983 PEETERS HENRI E 370 10:51:26:000
984 BORGHOMS GUY E 371 10:52:03:000
985 VAN MEEL PAUL F 198 10:52:10:000
986 SCHEIDEGGER URS E 372 10:52:39:000
987 SCHARFF DANIEL D 291 10:52:55:000
988 OP’T EYNDE PATRICK D 292 10:53:46:000
989 VERHOOG RONALD D 293 10:53:59:000
990 HEITBRINK FRANK F 199 10:54:25:000
991 DE COCK HUGO E 373 10:56:38:000
992 TWIGT WILLEM F 200 10:57:30:000
993 LEMMENS ROBBY D 294 10:57:59:000
994 STOKKING R E 374 10:58:08:000
995 VAND PETER F 201 10:58:16:000
996 GEENS VERONIQUE A 8 10:58:17:000
997 KHOENMREKENS PHILIP C 71 10:58:19:000
998 COWLARD DAVID F 202 10:59:45:000
999 BRON ROGIER D 295 10:59:52:000
1000 WANROOY JOHN E 375 11:00:06:000
1001 GIRARDET PHILIPPE E 376 11:00:41:000
1002 SMULDERS JAN F 203 11:01:14:000
1003 TRAYNOR RICHARD E 377 11:01:41:000
1004 HANSEN JOHN E 378 11:03:05:000
1005 AUBERT PIERRE E 379 11:03:35:000
1006 PLESSERS LUDO E 380 11:03:37:000
1007 BREHERET XAVIER E 381 11:03:53:000
1008 VANDEWIELE HENK F 204 11:04:00:000
1009 READ MARK F 205 11:04:06:000
1010 WOUTERS ERIC E 382 11:04:35:000
1011 SCHMITZ RON G 29 11:04:42:000
1012 VAN DER PIJL THEODORUS F 206 11:05:25:000
1013 FARGUES CLAUDINE B 2 11:05:52:000
1014 JASPERS DIANNE A 9 11:06:02:000
1015 MADSEN FRANK E 383 11:06:04:000
1016 VAN DER HEIJDEN MAX F 207 11:06:24:000
1017 VANDEWEYER WOUTER C 72 11:06:58:000
1018 VANDERSCHRAELEN LUDO F 208 11:07:01:000
1019 STROBANTS GEERT E 384 11:07:10:000
1020 DAEMS EDDY D 296 11:07:11:000
1021 BERTHO DAVY D 297 11:10:02:000
1022 VALLAEYS VALERE E 385 11:10:21:000
1023 VERSTRUTEN HANS F 209 11:11:10:000
1024 SEVENANTS JAN D 298 11:11:35:000
1025 VAND INGE B 3 11:11:56:000
1026 MACCALUSO BENEDETTO E 386 11:12:38:000
1027 VAN WINDEN MARCO E 387 11:12:43:000
1028 WATERSCHOT JOHAN D 299 11:13:00:000
1029 KENNIS STIJN D 300 11:13:00:000
1030 JANSSENS KRIS D 301 11:13:03:000
1031 MANTE ALBERT JAN D 302 11:13:08:000
1032 DEDOBBELEER PATRICK E 388 11:16:25:000
1033 NIEDDU ANTONIO E 389 11:17:05:000
1034 STARING RICHARD E 390 11:17:35:000
1035 DIJKMAN BART D 303 11:18:01:000
1036 ZWINNEN JEAN PAUL E 391 11:19:34:000
1037 WAECKENS KRIS D 304 11:19:40:000
1038 SCHOCKMEL ALAIN E 392 11:19:49:000
1039 HASSELAR ALBER D 305 11:19:52:000
1040 BERGER PATRICK E 393 11:20:42:000
1041 PAULSEN STEEN F 210 11:20:51:000
1042 G. VAHLBERG RENE E 394 11:21:39:000
1043 ARAVALO DANIEL F 211 11:22:29:000
1044 HUYMANS JOHAN E 395 11:23:22:000
1045 STOEPKER ANDRE D 306 11:23:47:000
1046 WELP PIETER D 307 11:23:56:000
1047 CRONE WERRY D 308 11:24:02:000
1048 BEUKEKAMP RUTGER D 309 11:24:38:000
1049 SCHEER YVES E 396 11:25:45:000
1050 DINTERICH BRUNO E 397 11:26:21:000
1051 VERSTEEG DION D 310 11:27:30:000
1052 DEBETS FRANS F 212 11:27:42:000
1053 MOSTERD HENRI E 398 11:28:06:000
1054 BROUWER TOON E 399 11:28:33:000
1055 KLESMAN KEES F 213 11:30:34:000
1056 LEVEQUE JEAN MICHEL E 400 11:31:33:000
1057 DEGREVE ROGER F 214 11:31:33:000
1058 MULDERS JOHN F 215 11:32:00:000
1059 SILLEKENS FRANCK D 311 11:32:01:000
1060 KARSTEN JAN G 30 11:32:32:000
1061 BLANCKE GERARD E 401 11:33:47:000
1062 STEFFENS HENNIE F 216 11:34:04:000
1063 WIELINK JAN F 217 11:37:03:000
1064 SEUNTJENS HARRY F 218 11:38:56:000
1065 VAN DE WETERINGE BUYS FRANK E 402 11:39:45:000
1066 KLUNDER HENK F 219 11:41:06:000
1067 STRUGE JAN E 403 11:42:43:000
1068 DESTREE CHARLES E 404 11:42:45:000
1069 VAN DER VEEN PETER E 405 11:42:47:000
1070 PLATZ OLSEN KNUD F 220 11:42:49:000
1071 HANSEN VILLY F 221 11:43:00:000
1072 VEGELS RIEN AB 16 11:43:08:000
1073 VOORJANS PAUL E 406 11:43:43:000
1074 HARNISCHMACHE JOS C 73 11:44:16:000
1075 DE LANGE MARCEL E 407 11:46:04:000
1076 ELSCHOT GERT E 408 11:48:15:000
1077 HAARNAGEL RIE AB 17 11:49:52:000
1078 RUITER THEO E 409 11:50:43:000
1079 BROEDSGAARD KELD E 410 11:51:05:000
1080 JACOBSEN RYAN E 411 11:51:06:000
1081 GABRIELSEN SOREN E 412 11:51:08:000
1082 DE BOER MARTIJN C 74 11:53:30:000
1083 LISBY MORTEN E 413 11:54:27:000
1084 BONNET MICHEL F 222 11:54:49:000
1085 LEFAS CHRISTOS F 223 11:58:56:000
1086 BAKKER PETER E 414 11:59:21:000
1087 VAN BELLE GUIDO E 415 12:01:27:000
1088 MOLENAAR JAAP E 416 12:01:52:000
1089 VAN GARDEREN MARTEN D 312 12:02:05:000
1090 VAN MIDDENDORP JANSJE A 10 12:02:13:000
1091 SCHROMBGES RONALD D 313 12:02:15:000
1092 NAROLD JACK F 224 12:04:05:000
1093 BARTOLI PIETRO E 417 12:06:37:000
1094 VAN DER SCHOOT LUC E 418 12:08:11:000
1095 DOES PETER E 419 12:08:35:000
1096 SCHNEIDER CARLO E 420 12:10:00:000
1097 VAN VILSTEREN JOS F 225 12:11:04:000
1098 VAN DE GRAAF MARC D 314 12:12:13:000
1099 VAN DEN BREE FRED F 226 12:12:50:000
1100 MACHIAFAVE CARMELO E 421 12:14:09:000
1101 VAN STEENSEL M C 75 12:22:48:000
1102 PERRISI STEFANO F 227 12:26:27:000
1103 FOURNIER PIERRE C 76 12:28:23:000
1104 WARIN MICHEL F 228 12:30:39:000
1105 CHARTIER GILLES E 422 12:37:55:000
1106 VAN BRUSSEL MARCO E 423 12:46:57:000
1107 DE VOOGD BART E 424 12:53:39:000
1108 STEENHOEK KEES JAN D 315 13:05:21:000
1109 LERAT HERVE E 425 13:05:21:000

Na górę 









Na górę  
 Strefa prywatna   Prawa autorskie-Copyright: Ciśnijcie tu żeby przeczytać!